Ban Chae Son, Thailand

1:44 PM +07 on October 20, 2017 (GMT +0700)
Mae Ta, Mae Ta, Chiang Mai 50130, Thailand | | Change Station

Elev 1532 ft 18.59 °N, 99.26 °E | Updated 2 seconds ago

Rain
Rain
84.9 °F
Feels Like 90 °F
N
0.4
Wind Variable Wind from SSW
Gusts 2.5 mph

Today
High -- | Low -- °F
--% Chance of Precip.
Yesterday
High -- | Low -- °F
Precip. -- in
Pressure 29.92 in
Visibility 6.2 miles
Clouds Mostly Cloudy 3500 ft
Heat Index 90 °F
Dew Point 71 °F
Humidity 63%
Rainfall 0.00 in
Snow Depth Not available.
6:17 AM 5:55 PM
New Moon, 0% visible
METAR VTCC 200630Z 16004KT 9999 BKN035 31/20 Q1013 NOSIG
Pressure 29.92 in
Visibility 6.2 miles
Clouds Mostly Cloudy 3500 ft
Heat Index 90 °F
Dew Point 71 °F
Humidity 63%
Rainfall 0.00 in
Snow Depth Not available.
6:17 AM 5:55 PM
New Moon, 0% visible
METAR VTCC 200630Z 16004KT 9999 BKN035 31/20 Q1013 NOSIG

Get Severe Weather Alerts

Thanks for signing up!

Be on the lookout for a verification email in your inbox.

You'll start receiving the daily forecast at 6 AM.

×

10-Day Weather Forecast

No radar image for this location.
×

Almanac

Astronomy

Oct. 20, 2017 Rise Set
Actual Time
Civil Twilight
Nautical Twilight
Astronomical Twilight
Moon
Length of Visible Light
Length of Day
Tomorrow will be .
, % of the Moon is Illuminated

Today's Extremes

Country Highs Country Lows

Community

WunderPhotos

Category 6

Welcome to Category 6. This is the collective home for Weather Underground's featured writeups by Dr. Jeff Masters (right), Bob Henson (left), Chris Burt, and other regular contributors.

Nearby

Air Quality

  Air Quality AQ Index Pollutant
Not available.

Snow Depth

Station Depth Elevation

Earthquake Activity

City Distance Mag. Time & Date
Minimum magnitude displayed is 2.5.

Coastal Water Temperatures

Place Temperature

Stations

Nearby Weather Stations

Station Location Temp. Windchill Dew Point Humidity Wind Precip. Elev Updated Type